| time (UTC) | temp F | wind direction | speed knots | gust knots | rain 1hr in | rain 24hr in | rain mn in | humidity % | barometer mb |
| 20260510043039 | 56 | 0 | 0.0 | 1.7 | 0.00 | 0.03 | 0.01 | 90 | 1008.7 |
| 20260510041534 | 57 | 0 | 0.0 | 0.0 | 0.00 | 0.03 | 0.01 | 89 | 1008.8 |
| 20260510040038 | 57 | 0 | 0.0 | 0.0 | 0.00 | 0.03 | 0.01 | 89 | 1009.0 |
| 20260510034536 | 57 | 0 | 0.0 | 0.9 | 0.00 | 0.03 | 0.01 | 88 | 1009.1 |
| 20260510033046 | 57 | 0 | 0.0 | 1.7 | 0.00 | 0.03 | 0.01 | 88 | 1009.1 |
| 20260510031545 | 57 | 0 | 0.0 | 0.0 | 0.00 | 0.03 | 0.01 | 89 | 1009.3 |
| 20260510030041 | 57 | 0 | 0.0 | 0.9 | 0.00 | 0.03 | 0.01 | 89 | 1009.3 |
| 20260510024539 | 58 | 0 | 0.0 | 0.0 | 0.00 | 0.03 | 0.01 | 89 | 1009.2 |
| 20260510023036 | 58 | 0 | 0.0 | 0.0 | 0.00 | 0.03 | 0.01 | 89 | 1009.0 |
| 20260510021616 | 58 | 0 | 0.0 | 0.0 | 0.00 | 0.03 | 0.01 | 88 | 1008.9 |
| 20260510020039 | 58 | 0 | 0.0 | 1.7 | 0.00 | 0.03 | 0.01 | 87 | 1008.8 |
| 20260510014551 | 59 | 0 | 0.0 | 1.7 | 0.00 | 0.03 | 0.01 | 87 | 1008.8 |
| 20260510013041 | 59 | 0 | 0.0 | 1.7 | 0.00 | 0.03 | 0.01 | 87 | 1008.9 |
| 20260510011538 | 59 | 0 | 0.0 | 0.9 | 0.00 | 0.03 | 0.01 | 86 | 1009.1 |
| 20260510010049 | 59 | 0 | 0.0 | 0.0 | 0.00 | 0.03 | 0.01 | 86 | 1009.5 |
| 20260510004535 | 59 | 0 | 0.0 | 0.0 | 0.00 | 0.03 | 0.01 | 85 | 1009.8 |
| 20260510003036 | 59 | 0 | 0.0 | 1.7 | 0.00 | 0.03 | 0.01 | 84 | 1010.1 |
| 20260510001540 | 59 | 0 | 0.0 | 0.0 | 0.00 | 0.03 | 0.01 | 85 | 1010.2 |
| 20260510000041 | 60 | 0 | 0.0 | 1.7 | 0.00 | 0.03 | 0.01 | 85 | 1010.8 |
| 20260509234538 | 60 | 0 | 0.0 | 1.7 | 0.00 | 0.03 | 0.01 | 84 | 1011.2 |
| 20260509233036 | 60 | 0 | 0.0 | 2.6 | 0.00 | 0.03 | 0.01 | 82 | 1011.5 |
| 20260509231543 | 61 | 158 | 0.9 | 4.3 | 0.00 | 0.03 | 0.01 | 82 | 1011.7 |
| 20260509230040 | 61 | 184 | 0.9 | 4.3 | 0.00 | 0.02 | 0.00 | 83 | 1011.7 |
| 20260509224540 | 61 | 117 | 1.7 | 3.5 | 0.02 | 0.02 | 0.00 | 85 | 1011.3 |
| 20260509223040 | 62 | 0 | 0.0 | 1.7 | 0.02 | 0.02 | 0.00 | 85 | 1011.0 |
| 20260509221540 | 63 | 0 | 1.7 | 4.3 | 0.02 | 0.02 | 0.00 | 83 | 1010.9 |
| 20260509220039 | 65 | 123 | 0.0 | 4.3 | 0.01 | 0.01 | 0.00 | 78 | 1010.8 |
| 20260509214539 | 66 | 157 | 0.9 | 8.7 | 0.00 | 0.00 | 0.00 | 74 | 1010.8 |
| 20260509213037 | 65 | 153 | 0.9 | 6.1 | 0.00 | 0.00 | 0.00 | 76 | 1010.9 |
| 20260509211539 | 65 | 0 | 0.0 | 0.0 | 0.00 | 0.00 | 0.00 | 75 | 1010.5 |
| 20260509210045 | 66 | 0 | 0.0 | 0.0 | 0.00 | 0.00 | 0.00 | 75 | 1010.4 |
| 20260509204535 | 66 | 0 | 0.0 | 0.0 | 0.00 | 0.00 | 0.00 | 74 | 1010.2 |
| 20260509203036 | 66 | 0 | 0.0 | 0.0 | 0.00 | 0.00 | 0.00 | 73 | 1010.0 |
| 20260509201539 | 67 | 0 | 0.0 | 0.0 | 0.00 | 0.00 | 0.00 | 71 | 1010.0 |
| 20260509200045 | 68 | 0 | 0.0 | 0.0 | 0.00 | 0.00 | 0.00 | 70 | 1010.0 |
| 20260509194552 | 68 | 0 | 0.0 | 0.0 | 0.00 | 0.00 | 0.00 | 69 | 1009.7 |
| 20260509193040 | 69 | 0 | 0.0 | 0.0 | 0.00 | 0.00 | 0.00 | 66 | 1009.6 |
| 20260509191538 | 70 | 0 | 0.0 | 0.0 | 0.00 | 0.00 | 0.00 | 65 | 1009.4 |
| 20260509190037 | 71 | 0 | 0.0 | 1.7 | 0.00 | 0.00 | 0.00 | 64 | 1009.4 |
| 20260509184539 | 71 | 63 | 0.0 | 2.6 | 0.00 | 0.00 | 0.00 | 62 | 1009.4 |
| 20260509183039 | 72 | 0 | 0.0 | 2.6 | 0.00 | 0.00 | 0.00 | 60 | 1009.2 |
| 20260509181538 | 72 | 84 | 0.9 | 2.6 | 0.00 | 0.00 | 0.00 | 60 | 1009.3 |
| 20260509180049 | 73 | 0 | 0.0 | 3.5 | 0.00 | 0.00 | 0.00 | 59 | 1009.4 |
| 20260509174537 | 73 | 0 | 0.0 | 3.5 | 0.00 | 0.00 | 0.00 | 58 | 1009.5 |
| 20260509173053 | 74 | 75 | 0.9 | 4.3 | 0.00 | 0.00 | 0.00 | 56 | 1009.4 |
| 20260509171541 | 74 | 56 | 0.9 | 2.6 | 0.00 | 0.00 | 0.00 | 56 | 1009.4 |
| 20260509170038 | 74 | 0 | 0.0 | 3.5 | 0.00 | 0.00 | 0.00 | 56 | 1009.3 |
| 20260509164538 | 74 | 97 | 0.9 | 4.3 | 0.00 | 0.00 | 0.00 | 55 | 1009.4 |
| 20260509163040 | 75 | 103 | 1.7 | 5.2 | 0.00 | 0.00 | 0.00 | 54 | 1009.6 |
| 20260509161552 | 74 | 107 | 0.9 | 3.5 | 0.00 | 0.00 | 0.00 | 56 | 1009.5 |
| 20260509160040 | 74 | 83 | 0.9 | 6.1 | 0.00 | 0.00 | 0.00 | 55 | 1009.7 |
| 20260509154545 | 75 | 136 | 0.9 | 3.5 | 0.00 | 0.00 | 0.00 | 56 | 1009.8 |
| 20260509153051 | 75 | 122 | 1.7 | 5.2 | 0.00 | 0.00 | 0.00 | 54 | 1009.8 |
| 20260509151536 | 75 | 143 | 1.7 | 5.2 | 0.00 | 0.00 | 0.00 | 54 | 1009.9 |
| 20260509150042 | 75 | 90 | 0.9 | 5.2 | 0.00 | 0.00 | 0.00 | 54 | 1010.1 |
| 20260509144545 | 75 | 152 | 0.9 | 4.3 | 0.00 | 0.00 | 0.00 | 53 | 1010.3 |
| 20260509143038 | 75 | 76 | 1.7 | 6.1 | 0.00 | 0.00 | 0.00 | 55 | 1010.4 |
| 20260509141542 | 75 | 97 | 0.9 | 4.3 | 0.00 | 0.00 | 0.00 | 54 | 1010.6 |
| 20260509140052 | 75 | 65 | 1.7 | 6.1 | 0.00 | 0.00 | 0.00 | 54 | 1010.8 |
| 20260509134540 | 74 | 90 | 1.7 | 7.0 | 0.00 | 0.00 | 0.00 | 56 | 1011.0 |
| 20260509133039 | 74 | 76 | 1.7 | 6.1 | 0.00 | 0.00 | 0.00 | 56 | 1011.1 |
| 20260509131538 | 74 | 62 | 1.7 | 6.1 | 0.00 | 0.00 | 0.00 | 59 | 1011.1 |
| 20260509130038 | 74 | 126 | 0.9 | 6.1 | 0.00 | 0.00 | 0.00 | 58 | 1011.3 |
| 20260509124536 | 73 | 116 | 1.7 | 6.1 | 0.00 | 0.00 | 0.00 | 59 | 1011.3 |
| 20260509123033 | 73 | 104 | 2.6 | 6.1 | 0.00 | 0.00 | 0.00 | 58 | 1011.3 |
| 20260509121534 | 73 | 107 | 1.7 | 5.2 | 0.00 | 0.00 | 0.00 | 59 | 1011.3 |
| 20260509120039 | 73 | 0 | 1.7 | 6.1 | 0.00 | 0.00 | 0.00 | 60 | 1011.2 |
| 20260509114538 | 73 | 72 | 2.6 | 7.8 | 0.00 | 0.00 | 0.00 | 59 | 1011.5 |
| 20260509113035 | 73 | 109 | 0.9 | 6.1 | 0.00 | 0.00 | 0.00 | 58 | 1011.5 |
| 20260509111536 | 73 | 110 | 1.7 | 7.0 | 0.00 | 0.00 | 0.00 | 59 | 1011.8 |
| 20260509110035 | 72 | 0 | 0.9 | 7.0 | 0.00 | 0.00 | 0.00 | 64 | 1011.9 |
| 20260509104539 | 71 | 113 | 2.6 | 8.7 | 0.00 | 0.00 | 0.00 | 65 | 1012.1 |
| 20260509103046 | 71 | 153 | 2.6 | 7.8 | 0.00 | 0.00 | 0.00 | 66 | 1012.4 |
| 20260509101540 | 71 | 169 | 2.6 | 7.0 | 0.00 | 0.00 | 0.00 | 66 | 1012.4 |
| 20260509100038 | 70 | 113 | 0.9 | 6.1 | 0.00 | 0.00 | 0.00 | 67 | 1012.5 |
| 20260509094536 | 70 | 138 | 2.6 | 7.0 | 0.00 | 0.00 | 0.00 | 67 | 1012.5 |
| 20260509093039 | 69 | 139 | 1.7 | 6.1 | 0.00 | 0.00 | 0.00 | 70 | 1012.5 |
| 20260509091548 | 68 | 139 | 2.6 | 6.1 | 0.00 | 0.00 | 0.00 | 69 | 1012.3 |
| 20260509090050 | 67 | 169 | 2.6 | 6.1 | 0.00 | 0.00 | 0.00 | 70 | 1012.2 |
| 20260509084536 | 66 | 142 | 3.5 | 7.8 | 0.00 | 0.00 | 0.00 | 73 | 1012.4 |
| 20260509083040 | 65 | 155 | 1.7 | 6.1 | 0.00 | 0.00 | 0.00 | 74 | 1012.4 |
| 20260509081534 | 63 | 159 | 1.7 | 7.0 | 0.00 | 0.00 | 0.00 | 76 | 1012.6 |
| 20260509080046 | 62 | 162 | 2.6 | 6.1 | 0.00 | 0.00 | 0.00 | 76 | 1012.6 |
| 20260509074550 | 62 | 159 | 1.7 | 7.0 | 0.00 | 0.00 | 0.00 | 78 | 1012.9 |
| 20260509073054 | 61 | 125 | 0.9 | 5.2 | 0.00 | 0.00 | 0.00 | 79 | 1012.7 |
| 20260509071535 | 60 | 141 | 2.6 | 7.0 | 0.00 | 0.00 | 0.00 | 78 | 1012.8 |
| 20260509070044 | 59 | 131 | 1.7 | 7.0 | 0.00 | 0.00 | 0.00 | 79 | 1012.9 |
| 20260509064540 | 59 | 171 | 2.6 | 7.0 | 0.00 | 0.00 | 0.00 | 80 | 1012.7 |
| 20260509063052 | 58 | 138 | 0.9 | 4.3 | 0.00 | 0.00 | 0.00 | 81 | 1012.8 |
| 20260509061537 | 57 | 0 | 0.0 | 3.5 | 0.00 | 0.00 | 0.00 | 81 | 1012.8 |
| 20260509060048 | 58 | 146 | 0.0 | 5.2 | 0.00 | 0.00 | 0.00 | 80 | 1012.6 |
| 20260509054537 | 58 | 152 | 0.9 | 5.2 | 0.00 | 0.00 | 0.00 | 80 | 1012.5 |
| 20260509053057 | 58 | 150 | 1.7 | 4.3 | 0.00 | 0.00 | 0.00 | 80 | 1012.4 |
| 20260509051538 | 57 | 142 | 0.9 | 4.3 | 0.00 | 0.00 | 0.00 | 80 | 1012.3 |
| 20260509050038 | 57 | 149 | 0.9 | 4.3 | 0.00 | 0.00 | 0.00 | 80 | 1012.2 |
| 20260509044536 | 57 | 126 | 0.0 | 1.7 | 0.00 | 0.00 | 0.00 | 81 | 1011.9 |